period_start,C,m1,H,J0,J1,J2,J3,J4,J5,JA,JB,JC,JD,JJ,JK,JN,#
2014-03-27 00:00:33,0.18,0.45,0.00,19.24,24.30,27.44,6.00,31.71,1000.99,2052.95,3364.30,3204.21,3488.45,349.33,322.46,2.42,0000 0000 0000 0000 000000
2014-03-27 00:01:34,0.20,0.45,0.00,19.24,24.31,27.45,6.06,31.67,1001.01,2052.96,3363.80,3203.88,3488.16,350.23,323.30,2.43,0000 0000 0000 0000 000000
2014-03-27 00:02:34,0.20,0.46,0.00,19.26,24.32,27.44,6.11,31.63,1001.00,2052.96,3363.29,3203.40,3487.75,350.43,323.47,2.43,0000 0000 0000 0000 000000
2014-03-27 00:03:34,0.20,0.46,0.00,19.27,24.32,27.45,6.06,31.88,1001.02,2052.93,3362.85,3203.14,3487.28,350.02,323.09,2.44,0000 0000 0000 0000 000000
2014-03-27 00:04:35,0.16,0.46,0.00,19.27,24.32,27.46,5.99,31.79,1001.03,2052.95,3362.32,3202.95,3487.08,349.92,323.36,2.44,0000 0000 0000 0000 000000
2014-03-27 00:05:35,0.18,0.46,0.00,19.27,24.32,27.44,5.90,31.67,1001.02,2052.96,3361.98,3202.44,3486.67,349.63,322.72,2.45,0000 0000 0000 0000 000000
2014-03-27 00:06:35,0.22,0.46,0.00,19.29,24.32,27.46,5.91,31.83,1001.02,2052.95,3361.40,3202.15,3486.24,349.15,322.26,2.46,0000 0000 0000 0000 000000
2014-03-27 00:07:35,0.18,0.46,0.00,19.29,24.32,27.47,6.05,31.58,1001.00,2052.95,3361.01,3201.76,3485.87,350.43,323.43,2.46,0000 0000 0000 0000 000000
2014-03-27 00:08:35,0.20,0.46,0.00,19.29,24.32,27.44,5.91,31.79,1001.01,2052.94,3360.42,3201.29,3485.34,349.44,322.51,2.47,0000 0000 0000 0000 000000
2014-03-27 00:09:36,0.22,0.46,0.00,19.29,24.32,27.45,5.98,31.71,1001.02,2052.95,3359.98,3201.00,3485.05,348.76,322.11,2.47,0000 0000 0000 0000 000000
2014-03-27 00:10:36,0.19,0.47,0.00,19.31,24.32,27.48,6.00,31.67,1001.07,2052.89,3359.40,3200.45,3484.49,349.92,322.93,2.48,0000 0000 0000 0000 000000
2014-03-27 00:11:36,0.20,0.47,0.00,19.32,24.33,27.49,5.92,31.88,1001.03,2052.87,3358.87,3200.16,3484.17,349.39,322.45,2.48,0000 0000 0000 0000 000000
2014-03-27 00:12:37,0.17,0.47,0.00,19.32,24.34,27.49,6.04,31.92,1001.05,2052.85,3358.33,3199.75,3483.82,350.17,323.46,2.49,0000 0000 0000 0000 000000
2014-03-27 00:13:37,0.19,0.47,0.00,19.33,24.35,27.46,6.04,31.75,1001.09,2052.83,3357.79,3199.28,3483.33,350.34,323.52,2.50,0000 0000 0000 0000 000000
2014-03-27 00:14:37,0.21,0.47,0.00,19.34,24.35,27.46,5.96,31.63,1001.07,2052.88,3357.30,3199.10,3483.08,349.86,322.83,2.50,0000 0000 0000 0000 000000
2014-03-27 00:15:38,0.16,0.47,0.00,19.34,24.35,27.50,6.10,31.83,1001.05,2052.91,3356.89,3198.83,3482.64,349.28,322.32,2.51,0000 0000 0000 0000 000000
2014-03-27 00:16:38,0.21,0.47,0.00,19.34,24.35,27.46,6.09,31.96,1001.15,2052.90,3356.34,3198.33,3482.23,350.53,323.51,2.51,0000 0000 0000 0000 000000
2014-03-27 00:17:38,0.19,0.47,0.00,19.35,24.35,27.44,5.86,31.92,1001.25,2052.88,3355.93,3198.11,3481.81,348.72,321.87,2.52,0000 0000 0000 0000 000000
2014-03-27 00:18:38,0.14,0.47,0.00,19.36,24.35,27.44,5.99,31.88,1001.29,2052.76,3355.41,3197.68,3481.30,350.43,323.45,2.53,0000 0000 0000 0000 000000
2014-03-27 00:19:39,0.16,0.47,0.00,19.37,24.36,27.43,6.08,31.83,1001.17,2052.67,3355.07,3197.26,3481.08,350.41,323.38,2.53,0000 0000 0000 0000 000000
2014-03-27 00:20:39,0.12,0.48,0.00,19.37,24.37,27.45,6.01,31.54,1001.12,2052.74,3354.53,3197.06,3480.59,350.69,323.63,2.54,0000 0000 0000 0000 000000
2014-03-27 00:21:39,0.18,0.48,0.00,19.37,24.37,27.47,5.93,31.63,1001.12,2052.71,3354.16,3196.61,3480.21,349.45,322.28,2.54,0000 0000 0000 0000 000000
2014-03-27 00:22:40,0.19,0.48,0.00,19.39,24.37,27.47,6.05,31.71,1001.18,2052.59,3353.59,3196.22,3479.75,349.92,322.92,2.55,0000 0000 0000 0000 000000
2014-03-27 00:23:40,0.07,0.48,0.00,19.39,24.37,27.47,5.91,31.58,1001.17,2052.34,3353.16,3195.95,3479.28,349.45,322.47,2.55,0000 0000 0000 0000 000000
2014-03-27 00:24:40,0.06,0.48,0.00,19.40,24.37,27.47,6.13,31.71,1001.25,2052.34,3352.57,3195.43,3479.07,349.91,323.03,2.56,0000 0000 0000 0000 000000
2014-03-27 00:25:41,0.16,0.48,0.00,19.41,24.37,27.46,5.97,31.58,1001.31,2052.25,3352.16,3195.14,3478.55,349.21,322.38,2.57,0000 0000 0000 0000 000000
2014-03-27 00:26:41,0.13,0.48,0.00,19.42,24.38,27.46,6.08,31.46,1001.34,2052.17,3351.55,3194.74,3478.20,350.59,323.76,2.57,0000 0000 0000 0000 000000
2014-03-27 00:27:41,0.18,0.48,0.00,19.42,24.39,27.45,6.14,31.75,1001.37,2052.21,3351.14,3194.30,3477.78,351.23,324.14,2.58,0000 0000 0000 0000 000000
2014-03-27 00:28:41,0.20,0.48,0.00,19.42,24.39,27.50,6.13,31.71,1001.38,2052.12,3350.53,3194.04,3477.29,349.83,323.14,2.58,0000 0000 0000 0000 000000
2014-03-27 00:29:42,0.16,0.48,0.00,19.44,24.40,27.49,6.02,31.79,1001.39,2052.11,3350.16,3193.50,3476.91,349.80,322.82,2.59,0000 0000 0000 0000 000000
2014-03-27 00:30:42,0.20,0.48,0.00,19.44,24.40,27.50,6.17,31.79,1001.43,2052.09,3349.61,3193.17,3476.37,350.13,323.24,2.60,0000 0000 0000 0000 000000
2014-03-27 00:31:42,0.18,0.49,0.00,19.46,24.40,27.51,6.07,31.75,1001.43,2052.05,3349.21,3192.89,3476.08,349.68,322.37,2.60,0000 0000 0000 0000 000000
2014-03-27 00:32:43,0.16,0.49,0.00,19.47,24.40,27.50,6.12,31.92,1001.41,2052.02,3348.64,3192.37,3475.57,350.96,323.85,2.61,0000 0000 0000 0000 000000
2014-03-27 00:33:43,0.19,0.49,0.00,19.47,24.41,27.49,6.05,31.75,1001.43,2052.02,3348.22,3192.13,3475.20,350.81,323.72,2.61,0000 0000 0000 0000 000000
2014-03-27 00:34:43,0.16,0.49,0.00,19.47,24.42,27.47,6.18,31.96,1001.42,2052.02,3347.78,3191.76,3474.96,349.59,322.59,2.62,0000 0000 0000 0000 000000
2014-03-27 00:35:43,0.21,0.49,0.00,19.47,24.42,27.47,6.03,31.79,1001.41,2052.02,3347.28,3191.29,3474.44,350.53,323.46,2.63,0000 0000 0000 0000 000000
2014-03-27 00:36:44,0.20,0.49,0.00,19.49,24.42,27.47,6.00,31.79,1001.41,2052.04,3346.78,3191.08,3474.16,350.83,323.72,2.63,0000 0000 0000 0000 000000
2014-03-27 00:37:44,0.17,0.49,0.00,19.49,24.42,27.48,5.98,32.04,1001.38,2052.04,3346.29,3190.63,3473.79,350.14,323.07,2.64,0000 0000 0000 0000 000000
2014-03-27 00:38:44,0.23,0.49,0.00,19.49,24.42,27.48,6.02,31.79,1001.44,2052.03,3345.72,3190.23,3473.29,349.67,322.53,2.64,0000 0000 0000 0000 000000
2014-03-27 00:39:45,0.19,0.49,0.00,19.50,24.43,27.52,5.98,31.83,1001.46,2052.03,3345.26,3190.04,3473.06,350.32,323.24,2.65,0000 0000 0000 0000 000000
2014-03-27 00:40:45,0.16,0.50,0.00,19.52,24.44,27.51,5.81,31.50,1001.46,2052.04,3344.82,3189.54,3472.64,348.82,321.84,2.65,0000 0000 0000 0000 000000
2014-03-27 00:41:45,0.23,0.50,0.00,19.52,24.45,27.49,6.22,31.71,1001.46,2052.04,3344.29,3189.19,3472.24,351.16,324.00,2.66,0000 0000 0000 0000 000000
2014-03-27 00:42:45,0.16,0.50,0.00,19.52,24.45,27.51,5.99,31.58,1001.46,2052.03,3343.80,3188.86,3471.90,350.20,323.01,2.67,0000 0000 0000 0000 000000
2014-03-27 00:43:45,0.22,0.50,0.00,19.53,24.45,27.52,5.98,31.63,1001.45,2052.01,3343.30,3188.34,3471.36,349.47,322.63,2.67,0000 0000 0000 0000 000000
2014-03-27 00:44:46,0.19,0.50,0.00,19.54,24.45,27.50,6.04,31.75,1001.45,2052.00,3342.85,3188.11,3471.11,350.30,323.07,2.68,0000 0000 0000 0000 000000
2014-03-27 00:45:46,0.15,0.50,0.00,19.54,24.46,27.48,5.84,31.58,1001.43,2052.00,3342.33,3187.70,3470.58,349.56,322.05,2.68,0000 0000 0000 0000 000000
2014-03-27 00:46:46,0.22,0.50,0.00,19.54,24.47,27.53,5.94,31.54,1001.48,2052.00,3341.94,3187.25,3470.21,349.76,322.74,2.69,0000 0000 0000 0000 000000
2014-03-27 00:47:47,0.19,0.50,0.00,19.55,24.47,27.54,6.20,31.75,1001.45,2052.01,3341.39,3187.07,3469.93,350.98,323.80,2.70,0000 0000 0000 0000 000000
2014-03-27 00:48:47,0.16,0.50,0.00,19.57,24.47,27.50,6.03,31.96,1001.43,2052.01,3341.05,3186.62,3469.38,350.56,323.10,2.70,0000 0000 0000 0000 000000
2014-03-27 00:49:47,0.21,0.51,0.00,19.57,24.47,27.55,6.09,31.50,1001.44,2052.01,3340.45,3186.23,3469.11,350.97,323.88,2.71,0000 0000 0000 0000 000000
2014-03-27 00:50:47,0.19,0.51,0.00,19.57,24.48,27.55,5.95,31.63,1001.47,2052.00,3340.04,3185.95,3468.57,349.45,322.26,2.71,0000 0000 0000 0000 000000
2014-03-27 00:51:48,0.21,0.51,0.00,19.58,24.49,27.53,6.09,31.58,1001.47,2052.00,3339.44,3185.42,3468.20,349.79,322.67,2.72,0000 0000 0000 0000 000000
2014-03-27 00:52:48,0.21,0.51,0.00,19.59,24.49,27.52,6.00,31.54,1001.47,2052.00,3339.07,3185.15,3467.94,349.25,322.17,2.72,0000 0000 0000 0000 000000
2014-03-27 00:53:48,0.16,0.51,0.00,19.59,24.50,27.53,6.07,31.79,1001.48,2052.00,3338.47,3184.86,3467.42,350.18,323.03,2.73,0000 0000 0000 0000 000000
2014-03-27 00:54:49,0.21,0.51,0.00,19.59,24.50,27.52,6.15,31.71,1001.48,2052.00,3338.07,3184.34,3467.14,350.33,323.16,2.74,0000 0000 0000 0000 000000
2014-03-27 00:55:49,0.19,0.51,0.00,19.61,24.50,27.53,6.02,31.71,1001.48,2052.00,3337.45,3184.12,3466.74,349.82,322.67,2.74,0000 0000 0000 0000 000000
2014-03-27 00:56:49,0.17,0.51,0.00,19.62,24.51,27.57,5.94,31.75,1001.47,2052.01,3337.09,3183.78,3466.27,349.92,322.75,2.75,0000 0000 0000 0000 000000
2014-03-27 00:57:50,0.21,0.52,0.00,19.62,24.52,27.52,6.02,31.21,1001.48,2052.00,3336.47,3183.30,3465.96,350.52,323.31,2.75,0000 0000 0000 0000 000000
2014-03-27 00:58:50,0.21,0.52,0.00,19.63,24.52,27.52,6.01,31.63,1001.48,2052.00,3336.10,3183.04,3465.41,349.19,322.07,2.76,0000 0000 0000 0000 000000
2014-03-27 00:59:50,0.20,0.52,0.00,19.64,24.52,27.53,6.14,31.79,1001.47,2052.00,3335.48,3182.49,3465.14,350.69,323.04,2.77,0000 0000 0000 0000 000000
2014-03-27 01:00:51,0.21,0.52,0.00,19.64,24.52,27.59,5.99,31.67,1001.48,2052.00,3335.12,3182.18,3464.81,350.34,323.11,2.77,0000 0000 0000 0000 000000
2014-03-27 01:01:51,0.18,0.52,0.00,19.65,24.54,27.55,5.95,31.79,1001.48,2052.00,3334.53,3181.87,3464.30,348.89,321.78,2.78,0000 0000 0000 0000 000000
2014-03-27 01:02:51,0.21,0.52,0.00,19.66,24.54,27.57,6.11,31.83,1001.48,2052.00,3334.18,3181.36,3464.07,349.96,322.75,2.78,0000 0000 0000 0000 000000
2014-03-27 01:03:51,0.18,0.52,0.00,19.67,24.55,27.56,6.02,31.46,1001.48,2052.00,3333.63,3181.13,3463.53,350.29,323.04,2.79,0000 0000 0000 0000 000000
2014-03-27 01:04:52,0.18,0.52,0.00,19.69,24.55,27.55,6.03,31.38,1001.48,2052.00,3333.22,3180.88,3463.19,349.72,322.49,2.80,0000 0000 0000 0000 000000
2014-03-27 01:05:52,0.18,0.52,0.00,19.69,24.55,27.54,5.87,31.71,1001.48,2052.00,3332.67,3180.36,3462.78,349.29,322.09,2.80,0000 0000 0000 0000 000000
2014-03-27 01:06:52,0.23,0.53,0.00,19.69,24.56,27.56,5.93,31.63,1001.49,2052.00,3332.24,3180.08,3462.30,349.64,322.53,2.81,0000 0000 0000 0000 000000
2014-03-27 01:07:52,0.18,0.53,0.00,19.69,24.57,27.57,5.97,31.75,1001.48,2052.00,3331.72,3179.60,3462.02,349.33,322.13,2.81,0000 0000 0000 0000 000000
2014-03-27 01:08:52,0.23,0.53,0.00,19.69,24.57,27.61,6.11,31.83,1001.51,2051.98,3331.25,3179.23,3461.47,349.47,322.60,2.82,0000 0000 0000 0000 000000
2014-03-27 01:09:53,0.18,0.53,0.00,19.67,24.57,27.63,6.07,31.67,1001.49,2051.99,3330.82,3179.03,3461.16,350.42,323.26,2.82,0000 0000 0000 0000 000000
2014-03-27 01:10:53,0.16,0.53,0.00,19.67,24.58,27.64,5.88,31.50,1001.50,2051.99,3330.31,3178.49,3460.78,350.07,322.85,2.83,0000 0000 0000 0000 000000
2014-03-27 01:11:53,0.22,0.53,0.00,19.67,24.59,27.66,5.99,31.75,1001.53,2051.99,3329.88,3178.17,3460.30,349.98,322.77,2.84,0000 0000 0000 0000 000000
2014-03-27 01:12:53,0.19,0.53,0.00,19.65,24.60,27.67,6.08,31.75,1001.50,2051.96,3329.34,3177.89,3460.06,350.61,323.36,2.84,0000 0000 0000 0000 000000
2014-03-27 01:13:53,0.16,0.53,0.00,19.64,24.60,27.69,6.14,31.71,1001.50,2051.95,3328.84,3177.36,3459.59,350.20,322.99,2.85,0000 0000 0000 0000 000000
2014-03-27 01:14:54,0.24,0.54,0.00,19.64,24.60,27.73,6.13,31.79,1001.48,2051.96,3328.31,3177.10,3459.21,350.02,322.82,2.85,0000 0000 0000 0000 000000
2014-03-27 01:15:54,0.15,0.54,0.00,19.64,24.60,27.72,6.19,31.83,1001.49,2051.96,3327.84,3176.68,3458.79,351.07,323.79,2.86,0000 0000 0000 0000 000000
2014-03-27 01:16:54,0.24,0.54,0.00,19.64,24.62,27.75,6.02,31.29,1001.52,2051.93,3327.32,3176.25,3458.30,350.17,322.97,2.87,0000 0000 0000 0000 000000
2014-03-27 01:17:54,0.18,0.54,0.00,19.64,24.62,27.76,5.96,31.79,1001.52,2051.89,3326.85,3175.99,3458.01,349.18,322.06,2.87,0000 0000 0000 0000 000000
2014-03-27 01:18:55,0.17,0.54,0.00,19.64,24.62,27.78,5.98,31.63,1001.50,2051.87,3326.33,3175.46,3457.48,350.22,323.01,2.88,0000 0000 0000 0000 000000
2014-03-27 01:19:55,0.19,0.54,0.00,19.65,24.63,27.79,6.02,31.67,1001.50,2051.88,3325.98,3175.17,3457.17,350.19,322.98,2.88,0000 0000 0000 0000 000000
2014-03-27 01:20:55,0.18,0.54,0.00,19.64,24.64,27.77,6.17,31.96,1001.49,2051.85,3325.41,3174.87,3456.73,350.06,322.88,2.89,0000 0000 0000 0000 000000
2014-03-27 01:21:56,0.18,0.54,0.00,19.65,24.65,27.76,6.02,31.83,1001.52,2051.78,3325.07,3174.34,3456.27,350.93,323.41,2.89,0000 0000 0000 0000 000000
2014-03-27 01:22:56,0.14,0.54,0.00,19.65,24.65,27.77,5.79,31.63,1001.52,2051.68,3324.48,3174.09,3456.01,348.78,322.20,2.90,0000 0000 0000 0000 000000
2014-03-27 01:23:56,0.07,0.54,0.00,19.65,24.65,27.78,5.89,31.75,1001.51,2051.62,3324.15,3173.71,3455.52,349.14,322.01,2.91,0000 0000 0000 0000 000000
2014-03-27 01:24:56,0.18,0.55,0.00,19.66,24.66,27.81,5.89,31.79,1001.50,2051.51,3323.64,3173.26,3455.18,350.20,322.97,2.91,0000 0000 0000 0000 000000
2014-03-27 01:25:56,0.08,0.55,0.00,19.66,24.67,27.80,5.81,31.71,1001.52,2051.41,3323.17,3173.01,3454.88,349.99,322.78,2.92,0000 0000 0000 0000 000000
2014-03-27 01:26:57,0.13,0.55,0.00,19.67,24.67,27.81,6.07,31.79,1001.54,2051.28,3322.52,3172.47,3454.37,350.39,323.15,2.92,0000 0000 0000 0000 000000
2014-03-27 01:27:57,0.13,0.55,0.00,19.68,24.67,27.79,5.89,31.71,1001.54,2051.16,3322.07,3172.16,3453.98,348.85,321.32,2.93,0000 0000 0000 0000 000000
2014-03-27 01:28:57,0.11,0.55,0.00,19.69,24.68,27.80,6.02,31.83,1001.53,2051.14,3321.49,3171.80,3453.42,350.23,322.99,2.94,0000 0000 0000 0000 000000
2014-03-27 01:29:57,0.22,0.55,0.00,19.68,24.69,27.81,6.08,31.71,1001.55,2051.11,3321.05,3171.31,3453.14,350.16,322.61,2.94,0000 0000 0000 0000 000000
2014-03-27 01:30:57,0.17,0.55,0.00,19.69,24.70,27.81,6.00,31.75,1001.52,2051.10,3320.43,3171.02,3452.65,350.06,322.70,2.95,0000 0000 0000 0000 000000
2014-03-27 01:31:58,0.22,0.55,0.00,19.69,24.70,27.80,6.02,31.79,1001.57,2051.09,3320.02,3170.49,3452.23,350.16,322.92,2.95,0000 0000 0000 0000 000000
2014-03-27 01:32:58,0.20,0.55,0.00,19.69,24.70,27.82,6.19,31.83,1001.60,2051.04,3319.42,3170.17,3451.87,350.84,323.56,2.96,0000 0000 0000 0000 000000
2014-03-27 01:33:58,0.16,0.55,0.00,19.69,24.71,27.84,5.98,31.38,1001.54,2051.04,3319.01,3169.88,3451.35,350.06,322.82,2.97,0000 0000 0000 0000 000000
2014-03-27 01:34:58,0.21,0.56,0.00,19.70,24.72,27.82,6.02,31.46,1001.53,2051.03,3318.44,3169.36,3451.12,350.04,322.80,2.97,0000 0000 0000 0000 000000
2014-03-27 01:35:59,0.19,0.56,0.00,19.71,24.72,27.83,6.08,31.46,1001.65,2051.03,3318.05,3169.12,3450.74,350.59,323.33,2.98,0000 0000 0000 0000 000000
2014-03-27 01:36:59,0.16,0.56,0.00,19.72,24.72,27.82,6.06,31.67,1001.65,2051.01,3317.45,3168.78,3450.28,350.45,323.19,2.98,0000 0000 0000 0000 000000
2014-03-27 01:37:59,0.22,0.56,0.00,19.72,24.72,27.83,6.13,31.75,1001.68,2051.01,3317.12,3168.30,3450.03,350.64,323.37,2.99,0000 0000 0000 0000 000000
2014-03-27 01:39:00,0.16,0.56,0.00,19.72,24.73,27.86,5.99,31.67,1001.66,2051.01,3316.56,3168.09,3449.49,350.31,323.06,2.99,0000 0000 0000 0000 000000
2014-03-27 01:40:00,0.22,0.56,0.00,19.72,24.74,27.85,6.01,31.92,1001.61,2051.02,3316.18,3167.69,3449.16,349.79,322.66,3.00,0000 0000 0000 0000 000000
2014-03-27 01:41:00,0.20,0.56,0.00,19.73,24.75,27.86,5.94,31.42,1001.71,2051.03,3315.71,3167.26,3448.78,349.83,322.62,3.01,0000 0000 0000 0000 000000
2014-03-27 01:42:00,0.22,0.56,0.00,19.74,24.75,27.85,6.22,31.88,1001.82,2051.01,3315.27,3167.02,3448.29,350.47,323.33,3.01,0000 0000 0000 0000 000000
2014-03-27 01:43:00,0.14,0.56,0.00,19.74,24.75,27.86,6.18,31.88,1001.89,2051.00,3314.86,3166.55,3448.09,350.66,323.21,3.02,0000 0000 0000 0000 000000
2014-03-27 01:44:00,0.20,0.57,0.00,19.76,24.75,27.84,5.94,31.58,1001.90,2051.00,3314.32,3166.19,3447.65,349.61,322.56,3.02,0000 0000 0000 0000 000000
2014-03-27 01:45:01,0.19,0.57,0.00,19.77,24.76,27.82,6.03,31.79,1001.91,2051.01,3313.97,3165.98,3447.23,349.71,322.54,3.03,0000 0000 0000 0000 000000
2014-03-27 01:46:01,0.15,0.57,0.00,19.77,24.77,27.83,6.08,31.63,1001.94,2051.00,3313.43,3165.46,3446.92,350.57,323.34,3.04,0000 0000 0000 0000 000000
2014-03-27 01:47:01,0.23,0.57,0.00,19.77,24.77,27.84,5.94,31.96,1001.94,2051.01,3312.98,3165.16,3446.38,349.39,322.54,3.04,0000 0000 0000 0000 000000
2014-03-27 01:48:01,0.20,0.57,0.00,19.79,24.77,27.85,6.02,31.58,1001.94,2051.00,3312.40,3164.79,3446.11,350.29,322.79,3.05,0000 0000 0000 0000 000000
2014-03-27 01:49:02,0.20,0.57,0.00,19.79,24.77,27.85,5.96,31.54,1001.90,2051.00,3312.05,3164.31,3445.60,349.20,322.05,3.05,0000 0000 0000 0000 000000
2014-03-27 01:50:02,0.21,0.57,0.00,19.79,24.78,27.90,6.05,31.79,1001.89,2051.00,3311.46,3164.08,3445.22,349.62,322.30,3.06,0000 0000 0000 0000 000000
2014-03-27 01:51:02,0.17,0.57,0.00,19.79,24.79,27.90,6.04,31.79,1001.87,2051.00,3311.03,3163.62,3444.91,350.13,322.56,3.06,0000 0000 0000 0000 000000
2014-03-27 01:52:02,0.23,0.57,0.00,19.79,24.80,27.88,6.13,31.67,1001.89,2051.00,3310.43,3163.23,3444.36,350.28,323.11,3.07,0000 0000 0000 0000 000000
2014-03-27 01:53:02,0.21,0.58,0.00,19.80,24.80,27.86,6.02,31.67,1001.90,2051.00,3310.10,3163.05,3444.12,349.89,323.13,3.08,0000 0000 0000 0000 000000
2014-03-27 01:54:03,0.10,0.58,0.00,19.81,24.80,27.89,6.00,31.63,1001.87,2051.00,3309.51,3162.59,3443.78,349.40,322.31,3.08,0000 0000 0000 0000 000000
2014-03-27 01:55:03,0.24,0.58,0.00,19.82,24.80,27.91,6.08,31.83,1001.90,2051.00,3309.10,3162.22,3443.30,350.01,322.75,3.09,0000 0000 0000 0000 000000
2014-03-27 01:56:03,0.19,0.58,0.00,19.82,24.81,27.88,5.86,31.79,1001.93,2051.00,3308.50,3161.89,3442.92,350.08,322.83,3.09,0000 0000 0000 0000 000000
2014-03-27 01:57:03,0.22,0.58,0.00,19.83,24.82,27.88,6.08,31.50,1001.96,2051.00,3308.11,3161.36,3442.39,350.30,323.03,3.10,0000 0000 0000 0000 000000
2014-03-27 01:58:03,0.22,0.58,0.00,19.84,24.82,27.86,6.07,31.71,1001.94,2051.00,3307.55,3161.12,3442.13,350.02,322.75,3.11,0000 0000 0000 0000 000000
2014-03-27 01:59:04,0.15,0.58,0.00,19.84,24.82,27.86,6.07,31.58,1001.92,2050.99,3307.15,3160.69,3441.65,349.67,322.42,3.11,0000 0000 0000 0000 000000
2014-03-27 02:00:04,0.22,0.58,0.00,19.85,24.82,27.88,6.24,31.83,1001.91,2050.98,3306.58,3160.26,3441.24,351.00,323.63,3.12,0000 0000 0000 0000 000000
2014-03-27 02:01:04,0.21,0.59,0.00,19.87,24.83,27.86,5.97,31.88,1001.95,2050.99,3306.16,3160.03,3440.97,350.24,323.34,3.12,0000 0000 0000 0000 000000
2014-03-27 02:02:05,0.13,0.59,0.00,19.87,24.84,27.84,5.95,31.33,1001.96,2050.98,3305.56,3159.55,3440.44,350.24,322.93,3.13,0000 0000 0000 0000 000000
2014-03-27 02:03:05,0.28,0.59,0.00,19.87,24.85,27.88,5.99,31.71,1001.96,2050.96,3305.17,3159.20,3440.14,349.99,322.69,3.13,0000 0000 0000 0000 000000
2014-03-27 02:04:05,0.13,0.59,0.00,19.89,24.85,27.88,5.84,31.54,1001.97,2050.96,3304.60,3158.80,3439.66,348.90,321.52,3.14,0000 0000 0000 0000 000000
2014-03-27 02:05:05,0.27,0.59,0.00,19.89,24.85,27.92,6.12,31.92,1001.97,2050.95,3304.21,3158.32,3439.23,350.60,323.23,3.15,0000 0000 0000 0000 000000
2014-03-27 02:06:05,0.18,0.59,0.00,19.90,24.86,27.93,5.84,31.42,1001.96,2050.97,3303.68,3158.11,3438.91,349.89,322.58,3.15,0000 0000 0000 0000 000000
2014-03-27 02:07:05,0.18,0.59,0.00,19.89,24.87,27.93,6.01,32.00,1001.97,2050.95,3303.22,3157.70,3438.38,350.21,322.99,3.16,0000 0000 0000 0000 000000
2014-03-27 02:08:06,0.21,0.59,0.00,19.90,24.87,27.92,6.02,31.29,1001.97,2050.94,3302.63,3157.25,3438.07,349.33,321.73,3.16,0000 0000 0000 0000 000000
2014-03-27 02:09:06,0.18,0.59,0.00,19.92,24.87,27.89,6.17,31.79,1001.97,2050.92,3302.20,3156.98,3437.56,350.35,323.28,3.17,0000 0000 0000 0000 000000
2014-03-27 02:10:06,0.19,0.60,0.00,19.92,24.87,27.89,5.93,31.63,1001.97,2050.88,3301.69,3156.48,3437.20,350.56,323.17,3.18,0000 0000 0000 0000 000000
2014-03-27 02:11:06,0.16,0.60,0.00,19.93,24.88,27.89,6.07,31.42,1001.97,2050.82,3301.25,3156.18,3436.90,350.01,322.78,3.18,0000 0000 0000 0000 000000
2014-03-27 02:12:06,0.12,0.60,0.00,19.94,24.89,27.89,5.88,31.58,1001.97,2050.79,3300.83,3155.96,3436.39,349.35,322.27,3.19,0000 0000 0000 0000 000000
2014-03-27 02:13:07,0.16,0.60,0.00,19.94,24.90,27.86,6.02,31.46,1001.97,2050.68,3300.32,3155.43,3436.10,350.46,322.78,3.19,0000 0000 0000 0000 000000
2014-03-27 02:14:07,0.12,0.60,0.00,19.95,24.90,27.90,5.98,31.67,1001.97,2050.60,3299.99,3155.15,3435.68,350.06,322.81,3.20,0000 0000 0000 0000 000000
2014-03-27 02:15:07,0.12,0.60,0.00,19.95,24.90,27.88,6.02,31.54,1001.97,2050.49,3299.43,3154.86,3435.25,349.74,322.25,3.21,0000 0000 0000 0000 000000
2014-03-27 02:16:07,0.10,0.60,0.00,19.97,24.90,27.92,6.07,31.75,1001.97,2050.45,3299.05,3154.34,3435.04,350.38,323.20,3.21,0000 0000 0000 0000 000000
2014-03-27 02:17:07,0.17,0.60,0.00,19.97,24.92,27.93,5.88,31.63,1001.97,2050.43,3298.44,3154.10,3434.56,350.05,322.85,3.22,0000 0000 0000 0000 000000
2014-03-27 02:18:08,0.21,0.60,0.00,19.98,24.92,27.90,6.20,31.96,1001.97,2050.33,3298.02,3153.73,3434.20,350.98,323.49,3.22,0000 0000 0000 0000 000000
2014-03-27 02:19:08,0.06,0.60,0.00,19.99,24.92,27.89,5.99,31.50,1001.97,2050.21,3297.42,3153.29,3433.80,349.59,322.19,3.23,0000 0000 0000 0000 000000
2014-03-27 02:20:08,0.14,0.60,0.00,19.99,24.92,27.87,5.98,31.67,1001.97,2050.18,3297.05,3153.07,3433.30,349.80,322.39,3.23,0000 0000 0000 0000 000000
2014-03-27 02:21:08,0.13,0.60,0.00,20.00,24.93,27.88,6.07,31.54,1001.97,2050.12,3296.50,3152.57,3433.05,349.75,322.34,3.24,0000 0000 0000 0000 000000
2014-03-27 02:22:08,0.17,0.61,0.00,20.01,24.94,27.91,6.01,31.46,1001.98,2050.06,3296.12,3152.20,3432.55,349.64,322.23,3.25,0000 0000 0000 0000 000000
2014-03-27 02:23:09,0.16,0.61,0.00,20.02,24.95,27.91,5.95,31.54,1001.98,2050.08,3295.54,3151.92,3432.20,349.40,321.99,3.25,0000 0000 0000 0000 000000
2014-03-27 02:24:09,0.20,0.61,0.00,20.03,24.95,27.95,5.84,31.38,1001.97,2050.10,3295.15,3151.43,3431.92,349.19,321.79,3.26,0000 0000 0000 0000 000000
2014-03-27 02:25:09,0.22,0.61,0.00,20.04,24.95,27.95,5.99,31.67,1001.98,2050.07,3294.55,3151.14,3431.41,350.35,322.85,3.26,0000 0000 0000 0000 000000
2014-03-27 02:26:10,0.18,0.61,0.00,20.04,24.96,27.93,5.93,31.46,1001.97,2050.03,3294.17,3150.85,3431.11,350.10,322.61,3.27,0000 0000 0000 0000 000000
2014-03-27 02:27:10,0.11,0.61,0.00,20.05,24.97,27.94,5.98,31.54,1001.97,2050.04,3293.61,3150.34,3430.59,349.84,322.37,3.28,0000 0000 0000 0000 000000
2014-03-27 02:28:10,0.30,0.61,0.00,20.06,24.97,27.95,5.98,31.67,1001.97,2050.06,3293.20,3150.11,3430.22,349.71,322.36,3.28,0000 0000 0000 0000 000000
2014-03-27 02:29:10,0.15,0.61,0.00,20.07,24.97,27.93,6.07,31.75,1001.97,2050.05,3292.78,3149.84,3429.97,350.09,323.45,3.29,0000 0000 0000 0000 000000
2014-03-27 02:30:11,0.15,0.61,0.00,20.09,24.97,27.94,6.08,31.67,1001.97,2050.02,3292.28,3149.36,3429.43,350.50,322.93,3.29,0000 0000 0000 0000 000000
2014-03-27 02:31:11,0.23,0.62,0.00,20.09,24.97,27.94,6.06,31.75,1001.98,2050.01,3291.76,3149.10,3429.13,350.35,322.79,3.30,0000 0000 0000 0000 000000
2014-03-27 02:32:11,0.14,0.62,0.00,20.09,24.99,27.94,6.02,31.50,1001.98,2050.00,3291.27,3148.61,3428.58,350.18,322.66,3.30,0000 0000 0000 0000 000000
2014-03-27 02:33:11,0.27,0.62,0.00,20.09,25.00,27.93,6.13,31.54,1001.97,2050.00,3290.74,3148.21,3428.20,348.76,321.32,3.31,0000 0000 0000 0000 000000
2014-03-27 02:34:12,0.20,0.62,0.00,20.10,25.00,27.94,5.91,31.58,1001.98,2050.00,3290.26,3147.97,3427.88,349.64,321.88,3.32,0000 0000 0000 0000 000000
2014-03-27 02:35:12,0.16,0.62,0.00,20.12,25.00,27.95,6.07,31.67,1001.98,2050.00,3289.96,3147.51,3427.36,349.57,322.19,3.32,0000 0000 0000 0000 000000
2014-03-27 02:36:12,0.21,0.62,0.00,20.12,25.01,27.98,6.07,31.63,1001.98,2050.00,3289.40,3147.18,3427.09,351.03,322.69,3.33,0000 0000 0000 0000 000000
2014-03-27 02:37:13,0.18,0.62,0.00,20.14,25.02,27.99,6.06,31.58,1001.99,2050.00,3288.99,3146.87,3426.59,349.31,321.78,3.33,0000 0000 0000 0000 000000